| time (UTC) | temp F | wind direction | speed knots | gust knots | rain 1hr in | rain 24hr in | rain mn in | humidity % | barometer mb |
| 20260504040644 | 63 | 193 | 1.7 | 6.1 | 0.00 | 0.00 | 0.00 | 67 | 1011.7 |
| 20260504040043 | 63 | 194 | 2.6 | 7.0 | 0.00 | 0.00 | 0.00 | 67 | 1011.7 |
| 20260504035544 | 63 | 192 | 2.6 | 8.7 | 0.00 | 0.00 | 0.00 | 67 | 1011.8 |
| 20260504035043 | 63 | 169 | 2.6 | 8.7 | 0.00 | 0.00 | 0.00 | 66 | 1011.9 |
| 20260504034547 | 63 | 216 | 0.9 | 5.2 | 0.00 | 0.00 | 0.00 | 66 | 1012.0 |
| 20260504034043 | 63 | 196 | 1.7 | 5.2 | 0.00 | 0.00 | 0.00 | 66 | 1012.1 |
| 20260504033542 | 63 | 198 | 1.7 | 8.7 | 0.00 | 0.00 | 0.00 | 65 | 1012.1 |
| 20260504033042 | 64 | 200 | 1.7 | 8.7 | 0.00 | 0.00 | 0.00 | 65 | 1012.2 |
| 20260504032542 | 64 | 190 | 2.6 | 8.7 | 0.00 | 0.00 | 0.00 | 65 | 1012.2 |
| 20260504032042 | 63 | 196 | 2.6 | 9.6 | 0.00 | 0.00 | 0.00 | 65 | 1012.3 |
| 20260504031550 | 64 | 209 | 1.7 | 8.7 | 0.00 | 0.00 | 0.00 | 65 | 1012.4 |
| 20260504031044 | 63 | 220 | 3.5 | 8.7 | 0.00 | 0.00 | 0.00 | 65 | 1012.2 |
| 20260504030502 | 63 | 174 | 1.7 | 7.0 | 0.00 | 0.00 | 0.00 | 65 | 1012.4 |
| 20260504030002 | 63 | 205 | 1.7 | 7.0 | 0.00 | 0.00 | 0.00 | 65 | 1012.4 |
| 20260504025502 | 64 | 198 | 1.7 | 7.0 | 0.00 | 0.00 | 0.00 | 65 | 1012.3 |
| 20260504025004 | 64 | 176 | 1.7 | 6.1 | 0.00 | 0.00 | 0.00 | 65 | 1012.3 |
| 20260504024502 | 64 | 171 | 0.9 | 4.3 | 0.00 | 0.00 | 0.00 | 65 | 1012.4 |
| 20260504024001 | 63 | 191 | 1.7 | 6.1 | 0.00 | 0.00 | 0.00 | 66 | 1012.3 |
| 20260504023502 | 63 | 170 | 0.9 | 6.1 | 0.00 | 0.00 | 0.00 | 66 | 1012.3 |
| 20260504023002 | 63 | 186 | 0.0 | 4.3 | 0.00 | 0.00 | 0.00 | 67 | 1012.2 |
| 20260504022503 | 63 | 159 | 0.9 | 3.5 | 0.00 | 0.00 | 0.00 | 66 | 1012.1 |
| 20260504022000 | 63 | 190 | 0.9 | 5.2 | 0.00 | 0.00 | 0.00 | 66 | 1012.1 |
| 20260504021552 | 63 | 189 | 1.7 | 5.2 | 0.00 | 0.00 | 0.00 | 66 | 1011.4 |
| 20260504021051 | 63 | 197 | 1.7 | 4.3 | 0.00 | 0.00 | 0.00 | 66 | 1011.5 |
| 20260504020650 | 63 | 215 | 0.9 | 3.5 | 0.00 | 0.00 | 0.00 | 65 | 1011.4 |
| 20260504020045 | 63 | 192 | 0.9 | 5.2 | 0.00 | 0.00 | 0.00 | 66 | 1011.6 |
| 20260504015545 | 64 | 197 | 0.9 | 5.2 | 0.00 | 0.00 | 0.00 | 65 | 1011.5 |
| 20260504015045 | 63 | 194 | 0.9 | 2.6 | 0.00 | 0.00 | 0.00 | 65 | 1011.4 |
| 20260504014544 | 64 | 186 | 0.9 | 2.6 | 0.00 | 0.00 | 0.00 | 63 | 1011.3 |
| 20260504014044 | 65 | 194 | 0.9 | 7.0 | 0.00 | 0.00 | 0.00 | 62 | 1011.4 |
| 20260504013547 | 65 | 171 | 0.9 | 7.0 | 0.00 | 0.00 | 0.00 | 63 | 1011.3 |
| 20260504013050 | 64 | 171 | 0.9 | 3.5 | 0.00 | 0.00 | 0.00 | 63 | 1011.3 |
| 20260504012544 | 64 | 200 | 0.9 | 3.5 | 0.00 | 0.00 | 0.00 | 64 | 1011.3 |
| 20260504012044 | 64 | 186 | 0.9 | 3.5 | 0.00 | 0.00 | 0.00 | 63 | 1011.2 |
| 20260504011544 | 65 | 198 | 0.9 | 2.6 | 0.00 | 0.00 | 0.00 | 62 | 1011.2 |
| 20260504011046 | 65 | 190 | 0.0 | 4.3 | 0.00 | 0.00 | 0.00 | 62 | 1011.2 |
| 20260504010643 | 66 | 178 | 0.9 | 4.3 | 0.00 | 0.00 | 0.00 | 60 | 1011.0 |
| 20260504010053 | 68 | 194 | 1.7 | 5.2 | 0.00 | 0.00 | 0.00 | 58 | 1011.1 |
| 20260504005542 | 68 | 187 | 1.7 | 5.2 | 0.00 | 0.00 | 0.00 | 55 | 1011.0 |
| 20260504005043 | 69 | 165 | 1.7 | 5.2 | 0.00 | 0.00 | 0.00 | 55 | 1011.0 |
| 20260504004546 | 69 | 182 | 2.6 | 5.2 | 0.00 | 0.00 | 0.00 | 53 | 1010.9 |
| 20260504004042 | 70 | 188 | 1.7 | 6.1 | 0.00 | 0.00 | 0.00 | 53 | 1011.0 |
| 20260504003542 | 70 | 215 | 2.6 | 8.7 | 0.00 | 0.00 | 0.00 | 53 | 1011.0 |
| 20260504003043 | 71 | 197 | 0.9 | 9.6 | 0.00 | 0.00 | 0.00 | 52 | 1011.0 |
| 20260504002541 | 71 | 184 | 2.6 | 9.6 | 0.00 | 0.00 | 0.00 | 51 | 1010.9 |
| 20260504002041 | 72 | 211 | 3.5 | 8.7 | 0.00 | 0.00 | 0.00 | 50 | 1011.0 |
| 20260504001541 | 72 | 213 | 2.6 | 17.4 | 0.00 | 0.00 | 0.00 | 50 | 1011.0 |
| 20260504001043 | 72 | 200 | 3.5 | 17.4 | 0.00 | 0.00 | 0.00 | 49 | 1011.0 |
| 20260504000640 | 72 | 219 | 3.5 | 8.7 | 0.00 | 0.00 | 0.00 | 49 | 1011.0 |
| 20260504000038 | 73 | 169 | 3.5 | 9.6 | 0.00 | 0.00 | 0.00 | 49 | 1011.0 |
| 20260503235538 | 73 | 171 | 3.5 | 12.2 | 0.00 | 0.00 | 0.00 | 49 | 1011.0 |
| 20260503235038 | 73 | 155 | 2.6 | 12.2 | 0.00 | 0.00 | 0.00 | 48 | 1011.0 |
| 20260503234541 | 73 | 188 | 2.6 | 8.7 | 0.00 | 0.00 | 0.00 | 49 | 1011.0 |
| 20260503234041 | 73 | 200 | 2.6 | 8.7 | 0.00 | 0.00 | 0.00 | 49 | 1011.1 |
| 20260503233537 | 73 | 234 | 2.6 | 9.6 | 0.00 | 0.00 | 0.00 | 48 | 1011.1 |
| 20260503233038 | 73 | 201 | 2.6 | 8.7 | 0.00 | 0.00 | 0.00 | 48 | 1011.1 |
| 20260503232537 | 73 | 187 | 2.6 | 14.8 | 0.00 | 0.00 | 0.00 | 48 | 1011.2 |
| 20260503232036 | 73 | 238 | 4.3 | 15.6 | 0.00 | 0.00 | 0.00 | 48 | 1011.3 |
| 20260503231536 | 74 | 213 | 3.5 | 10.4 | 0.00 | 0.00 | 0.00 | 47 | 1011.2 |
| 20260503231038 | 73 | 197 | 3.5 | 14.8 | 0.00 | 0.00 | 0.00 | 48 | 1011.3 |
| 20260503230637 | 73 | 188 | 7.0 | 14.8 | 0.00 | 0.00 | 0.00 | 47 | 1011.3 |
| 20260503230110 | 73 | 179 | 1.7 | 15.6 | 0.00 | 0.00 | 0.00 | 47 | 1011.4 |
| 20260503225555 | 74 | 184 | 7.0 | 16.5 | 0.00 | 0.00 | 0.00 | 47 | 1011.5 |
| 20260503225054 | 74 | 231 | 5.2 | 16.5 | 0.00 | 0.00 | 0.00 | 47 | 1011.5 |
| 20260503224554 | 74 | 168 | 5.2 | 14.8 | 0.00 | 0.00 | 0.00 | 47 | 1011.5 |
| 20260503224054 | 74 | 221 | 3.5 | 11.3 | 0.00 | 0.00 | 0.00 | 47 | 1011.7 |
| 20260503223554 | 74 | 196 | 2.6 | 9.6 | 0.00 | 0.00 | 0.00 | 48 | 1011.5 |
| 20260503223109 | 74 | 184 | 2.6 | 10.4 | 0.00 | 0.00 | 0.00 | 47 | 1011.7 |
| 20260503222552 | 74 | 178 | 1.7 | 14.8 | 0.00 | 0.00 | 0.00 | 48 | 1011.6 |
| 20260503222052 | 74 | 228 | 4.3 | 15.6 | 0.00 | 0.00 | 0.00 | 46 | 1011.7 |
| 20260503221554 | 74 | 212 | 5.2 | 15.6 | 0.00 | 0.00 | 0.00 | 46 | 1011.7 |
| 20260503221052 | 74 | 184 | 5.2 | 13.0 | 0.00 | 0.00 | 0.00 | 46 | 1011.9 |
| 20260503220651 | 74 | 225 | 4.3 | 16.5 | 0.00 | 0.00 | 0.00 | 45 | 1011.9 |
| 20260503220053 | 74 | 255 | 4.3 | 19.1 | 0.00 | 0.00 | 0.00 | 46 | 1011.9 |
| 20260503215551 | 74 | 153 | 7.8 | 19.1 | 0.00 | 0.00 | 0.00 | 44 | 1012.0 |
| 20260503215051 | 74 | 213 | 7.0 | 14.8 | 0.00 | 0.00 | 0.00 | 44 | 1012.0 |
| 20260503214556 | 74 | 214 | 2.6 | 13.0 | 0.00 | 0.00 | 0.00 | 46 | 1012.1 |
| 20260503214050 | 74 | 190 | 5.2 | 10.4 | 0.00 | 0.00 | 0.00 | 44 | 1012.1 |
| 20260503213550 | 74 | 157 | 3.5 | 9.6 | 0.00 | 0.00 | 0.00 | 45 | 1012.1 |
| 20260503213051 | 75 | 164 | 4.3 | 9.6 | 0.00 | 0.00 | 0.00 | 50 | 1012.2 |
| 20260503212549 | 74 | 236 | 2.6 | 13.0 | 0.00 | 0.00 | 0.00 | 45 | 1012.2 |
| 20260503212047 | 74 | 216 | 5.2 | 13.0 | 0.00 | 0.00 | 0.00 | 44 | 1012.3 |
| 20260503211547 | 74 | 145 | 3.5 | 13.0 | 0.00 | 0.00 | 0.00 | 45 | 1012.3 |
| 20260503211047 | 74 | 190 | 3.5 | 11.3 | 0.00 | 0.00 | 0.00 | 45 | 1012.6 |
| 20260503210648 | 74 | 242 | 4.3 | 13.0 | 0.00 | 0.00 | 0.00 | 45 | 1012.6 |
| 20260503210050 | 74 | 221 | 5.2 | 18.2 | 0.00 | 0.00 | 0.00 | 43 | 1012.7 |
| 20260503205550 | 74 | 156 | 5.2 | 12.2 | 0.00 | 0.00 | 0.00 | 44 | 1012.8 |
| 20260503205049 | 74 | 213 | 5.2 | 16.5 | 0.00 | 0.00 | 0.00 | 45 | 1012.9 |
| 20260503204548 | 74 | 187 | 9.6 | 16.5 | 0.00 | 0.00 | 0.00 | 44 | 1013.1 |
| 20260503204047 | 74 | 157 | 6.1 | 19.1 | 0.00 | 0.00 | 0.00 | 45 | 1013.2 |
| 20260503203547 | 74 | 196 | 5.2 | 19.1 | 0.00 | 0.00 | 0.00 | 44 | 1013.4 |
| 20260503203048 | 74 | 184 | 3.5 | 11.3 | 0.00 | 0.00 | 0.00 | 43 | 1013.6 |
| 20260503202550 | 74 | 183 | 2.6 | 9.6 | 0.00 | 0.00 | 0.00 | 44 | 1013.6 |
| 20260503202045 | 74 | 133 | 2.6 | 18.2 | 0.00 | 0.00 | 0.00 | 44 | 1013.8 |
| 20260503201549 | 74 | 165 | 8.7 | 18.2 | 0.00 | 0.00 | 0.00 | 41 | 1013.9 |
| 20260503201043 | 74 | 232 | 4.3 | 17.4 | 0.00 | 0.00 | 0.00 | 43 | 1014.0 |
| 20260503200644 | 74 | 151 | 2.6 | 13.9 | 0.00 | 0.00 | 0.00 | 46 | 1014.1 |
| 20260503200047 | 73 | 195 | 5.2 | 17.4 | 0.00 | 0.00 | 0.00 | 43 | 1014.1 |
| 20260503195545 | 73 | 219 | 5.2 | 17.4 | 0.00 | 0.00 | 0.00 | 43 | 1014.3 |
| 20260503195045 | 74 | 234 | 7.0 | 17.4 | 0.00 | 0.00 | 0.00 | 45 | 1014.3 |
| 20260503194553 | 73 | 247 | 4.3 | 13.9 | 0.00 | 0.00 | 0.00 | 42 | 1014.3 |
| 20260503194046 | 74 | 216 | 2.6 | 13.9 | 0.00 | 0.00 | 0.00 | 43 | 1014.6 |
| 20260503193543 | 73 | 308 | 3.5 | 10.4 | 0.00 | 0.00 | 0.00 | 45 | 1014.6 |
| 20260503193041 | 74 | 238 | 5.2 | 10.4 | 0.00 | 0.00 | 0.00 | 43 | 1014.8 |
| 20260503192540 | 73 | 192 | 2.6 | 13.0 | 0.00 | 0.00 | 0.00 | 43 | 1014.9 |
| 20260503192040 | 73 | 145 | 7.0 | 13.9 | 0.00 | 0.00 | 0.00 | 41 | 1014.9 |
| 20260503191539 | 73 | 190 | 4.3 | 13.9 | 0.00 | 0.00 | 0.00 | 42 | 1014.9 |
| 20260503191039 | 72 | 190 | 5.2 | 14.8 | 0.00 | 0.00 | 0.00 | 42 | 1015.0 |
| 20260503190641 | 72 | 196 | 3.5 | 19.1 | 0.00 | 0.00 | 0.00 | 41 | 1015.0 |
| 20260503190046 | 72 | 218 | 4.3 | 18.2 | 0.00 | 0.00 | 0.00 | 44 | 1015.0 |
| 20260503185542 | 72 | 219 | 6.1 | 15.6 | 0.00 | 0.00 | 0.00 | 41 | 1015.2 |
| 20260503185042 | 72 | 210 | 2.6 | 15.6 | 0.00 | 0.00 | 0.00 | 46 | 1015.1 |
| 20260503184543 | 71 | 150 | 7.8 | 15.6 | 0.00 | 0.00 | 0.00 | 41 | 1015.3 |
| 20260503184041 | 72 | 227 | 6.1 | 14.8 | 0.00 | 0.00 | 0.00 | 41 | 1015.4 |
| 20260503183539 | 72 | 178 | 7.0 | 13.9 | 0.00 | 0.00 | 0.00 | 42 | 1015.5 |
| 20260503183042 | 72 | 281 | 3.5 | 13.0 | 0.00 | 0.00 | 0.00 | 43 | 1015.7 |
| 20260503182537 | 72 | 265 | 4.3 | 13.0 | 0.00 | 0.00 | 0.00 | 41 | 1015.7 |
| 20260503182036 | 71 | 208 | 4.3 | 11.3 | 0.00 | 0.00 | 0.00 | 42 | 1015.8 |
| 20260503181554 | 72 | 215 | 2.6 | 13.0 | 0.00 | 0.00 | 0.00 | 45 | 1016.1 |
| 20260503181038 | 71 | 135 | 2.6 | 16.5 | 0.00 | 0.00 | 0.00 | 48 | 1016.1 |
| 20260503180505 | 70 | 233 | 5.2 | 16.5 | 0.00 | 0.00 | 0.00 | 44 | 1016.1 |
| 20260503180013 | 70 | 142 | 2.6 | 15.6 | 0.00 | 0.00 | 0.00 | 47 | 1016.2 |
| 20260503175504 | 71 | 172 | 4.3 | 12.2 | 0.00 | 0.00 | 0.00 | 46 | 1016.5 |
| 20260503175002 | 70 | 229 | 0.9 | 12.2 | 0.00 | 0.00 | 0.00 | 51 | 1016.6 |
| 20260503174618 | 70 | 177 | 2.6 | 10.4 | 0.00 | 0.00 | 0.00 | 42 | 1016.8 |
| 20260503174102 | 69 | 171 | 5.2 | 10.4 | 0.00 | 0.00 | 0.00 | 44 | 1017.1 |
| 20260503173558 | 69 | 190 | 4.3 | 16.5 | 0.00 | 0.00 | 0.00 | 46 | 1017.2 |
| 20260503173110 | 69 | 212 | 6.1 | 16.5 | 0.00 | 0.00 | 0.00 | 44 | 1017.4 |
| 20260503172557 | 69 | 329 | 3.5 | 13.0 | 0.00 | 0.00 | 0.00 | 44 | 1017.5 |
| 20260503172054 | 69 | 222 | 4.3 | 13.0 | 0.00 | 0.00 | 0.00 | 46 | 1017.6 |
| 20260503171552 | 69 | 180 | 2.6 | 8.7 | 0.00 | 0.00 | 0.00 | 46 | 1017.9 |
| 20260503171052 | 68 | 177 | 3.5 | 11.3 | 0.00 | 0.00 | 0.00 | 45 | 1017.9 |
| 20260503170502 | 67 | 308 | 3.5 | 16.5 | 0.00 | 0.00 | 0.00 | 46 | 1018.0 |
| 20260503150645 | 60 | 293 | 6.1 | 12.2 | 0.00 | 0.00 | 0.00 | 56 | 1019.7 |
| 20260503131054 | 49 | 139 | 5.2 | 12.2 | 0.00 | 0.00 | 0.00 | 74 | 1020.0 |
| 20260503130531 | 49 | 190 | 2.6 | 7.8 | 0.00 | 0.00 | 0.00 | 76 | 1020.0 |